EW0364 Weather Reports


time (UTC)temp
C
wind
direction
speed
KPH
gust
KPH
rain 1hr
cm
rain 24hr
cm
rain mn
cm
humidity
%
barometer
mb
20260505070907 11 187 1.6 6.4 0.00 0.00 0.00 87 1011.3
20260505065859 11 188 1.6 6.4 0.00 0.00 0.00 87 1011.3
20260505064059 11 208 3.2 11.3 0.00 0.00 0.00 87 1011.3
20260505063159 11 202 4.8 11.3 0.00 0.00 0.00 87 1011.3
20260505062259 11 216 4.8 12.9 0.00 0.00 0.00 87 1011.4
20260505061359 11 229 6.4 16.1 0.00 0.00 0.00 87 1011.4
20260505060459 11 241 4.8 14.5 0.00 0.00 0.00 87 1011.4
20260505055559 11 219 4.8 14.5 0.00 0.00 0.00 86 1011.4
20260505054659 11 216 6.4 19.3 0.00 0.00 0.00 87 1011.4
20260505053759 11 219 4.8 14.5 0.00 0.00 0.00 86 1011.4
20260505052859 11 243 3.2 11.3 0.00 0.00 0.00 86 1011.5
20260505051959 11 249 6.4 22.5 0.00 0.00 0.00 86 1011.4
20260505051059 11 243 6.4 25.7 0.00 0.00 0.00 86 1011.6
20260505050159 11 242 6.4 16.1 0.00 0.00 0.00 86 1011.7
20260505041658 11 204 6.4 19.3 0.00 0.00 0.00 85 1011.8
20260505040758 11 203 8.0 19.3 0.00 0.00 0.00 85 1011.8
20260505034958 11 197 8.0 24.1 0.00 0.00 0.00 84 1011.8
20260505031359 11 205 4.8 12.9 0.00 0.00 0.00 83 1012.1
20260505030458 11 204 6.4 17.7 0.00 0.00 0.00 83 1012.0
20260505024659 11 229 4.8 14.5 0.00 0.00 0.00 82 1012.1
20260505023758 11 242 6.4 16.1 0.00 0.00 0.00 82 1012.0
20260505022858 12 231 8.0 17.7 0.00 0.00 0.00 82 1012.2
20260505021958 12 243 9.7 22.5 0.00 0.00 0.00 81 1012.1
20260505021058 12 247 8.0 22.5 0.00 0.00 0.00 81 1012.1
20260505020158 12 243 8.0 20.9 0.00 0.00 0.00 81 1012.0
20260505015258 12 244 8.0 17.7 0.00 0.00 0.00 81 1012.0
20260505014358 12 240 8.0 24.1 0.00 0.00 0.00 80 1012.0
20260505013458 12 226 9.7 27.4 0.00 0.00 0.00 80 1011.9
20260505012558 12 226 11.3 25.7 0.00 0.00 0.00 80 1011.7
20260505005858 12 224 11.3 24.1 0.00 0.00 0.00 78 1011.3
20260505004958 12 237 12.9 35.4 0.00 0.00 0.00 76 1011.2
20260505004059 12 236 14.5 35.4 0.00 0.00 0.00 75 1011.1
20260505003158 12 229 16.1 35.4 0.00 0.00 0.00 75 1011.0
20260505002258 12 237 12.9 35.4 0.00 0.00 0.00 73 1010.8
20260505001358 12 241 14.5 35.4 0.00 0.00 0.00 72 1010.6
20260505000458 13 232 14.5 32.2 0.00 0.00 0.00 71 1010.4
20260504235558 13 229 14.5 35.4 0.00 0.00 0.00 71 1010.3
20260504233758 13 239 14.5 35.4 0.00 0.00 0.00 71 1010.2
20260504231958 13 228 12.9 32.2 0.00 0.00 0.00 70 1009.9
20260504231058 13 241 12.9 30.6 0.00 0.00 0.00 69 1010.0
20260504230158 13 231 16.1 37.0 0.00 0.00 0.00 68 1010.0
20260504225258 13 240 9.7 25.7 0.00 0.00 0.00 67 1009.9
20260504224358 14 247 14.5 32.2 0.00 0.00 0.00 66 1009.8
20260504222558 14 221 16.1 37.0 0.00 0.00 0.00 66 1009.8
20260504221658 14 229 14.5 37.0 0.00 0.00 0.00 64 1009.8
20260504220758 14 212 14.5 29.0 0.00 0.00 0.00 63 1009.7
20260504214958 15 220 14.5 38.6 0.00 0.00 0.00 62 1009.8
20260504214058 15 219 14.5 32.2 0.00 0.00 0.00 63 1009.8
20260504213158 15 223 16.1 37.0 0.00 0.00 0.00 63 1009.7
20260504212258 15 215 16.1 43.5 0.00 0.00 0.00 64 1009.7
20260504211358 15 216 17.7 43.5 0.00 0.00 0.00 63 1009.9
20260504210458 15 217 17.7 40.2 0.00 0.00 0.00 62 1009.7
20260504205558 15 219 16.1 37.0 0.00 0.00 0.00 61 1009.6
20260504204657 15 227 17.7 37.0 0.00 0.00 0.00 60 1009.8
20260504202858 15 227 16.1 32.2 0.00 0.00 0.00 59 1009.5
20260504201959 16 239 16.1 33.8 0.00 0.00 0.00 59 1009.5
20260504201057 16 234 14.5 38.6 0.00 0.00 0.00 56 1009.4
20260504195257 16 229 20.9 53.1 0.00 0.00 0.00 52 1009.4
20260504194358 16 238 19.3 45.1 0.00 0.00 0.00 49 1009.5
20260504193457 16 221 19.3 53.1 0.00 0.00 0.00 50 1009.7
20260504192558 17 225 17.7 46.7 0.00 0.00 0.00 48 1009.5
20260504191658 17 225 19.3 35.4 0.00 0.00 0.00 50 1009.7
20260504190757 17 234 19.3 45.1 0.00 0.00 0.00 44 1009.9
20260504185858 17 251 22.5 46.7 0.00 0.00 0.00 44 1009.8
20260504184957 18 252 20.9 53.1 0.00 0.00 0.00 43 1009.9
20260504184057 18 251 17.7 53.1 0.00 0.00 0.00 41 1009.9
20260504183157 18 235 17.7 40.2 0.00 0.00 0.00 44 1010.0
20260504182257 18 245 17.7 37.0 0.00 0.00 0.00 46 1010.0
20260504181357 18 222 17.7 35.4 0.00 0.00 0.00 49 1009.8
20260504175557 18 228 14.5 49.9 0.00 0.00 0.00 50 1009.6
20260504174657 18 222 17.7 35.4 0.00 0.00 0.00 50 1009.7
20260504173757 17 211 16.1 37.0 0.00 0.00 0.00 50 1009.7
20260504172857 17 223 16.1 35.4 0.00 0.00 0.00 49 1009.9
20260504171957 17 210 14.5 43.5 0.00 0.00 0.00 49 1009.9
20260504171057 18 217 12.9 32.2 0.00 0.00 0.00 47 1009.8
20260504170157 18 243 17.7 35.4 0.00 0.00 0.00 44 1010.0
20260504150457 16 246 14.5 37.0 0.00 0.00 0.00 49 1010.9
20260504141057 16 232 12.9 25.7 0.00 0.00 0.00 52 1011.2
20260504140157 16 220 14.5 29.0 0.00 0.00 0.00 52 1011.1
20260504130758 15 278 12.9 30.6 0.00 0.00 0.00 48 1011.4
20260504110156 10 258 6.4 16.1 0.00 0.03 0.00 67 1011.5
20260504081956 8 226 1.6 3.2 0.00 0.03 0.00 69 1011.1
20260504081056 8 226 1.6 4.8 0.00 0.03 0.00 69 1011.0
20260504080156 8 226 0.0 4.8 0.00 0.03 0.00 68 1011.0